Clarksburg, WV

4:03 PM EST on December 12, 2019 (GMT -0500)
Benedum

Weather History for KCKB - June, 2019

Change the Weather History Date:

Wednesday, June 5, 2019

  Actual Average Record
Temperature  
Mean Temperature 66 °F -  
Max Temperature 72 °F 78 °F 100 °F (1925)
Min Temperature 59 °F 52 °F 40 °F (1945)
Cooling Degree Days 1    
Month to date cooling degree days 9  
Year to date cooling degree days 188  
Since 1 June cooling degree days 9  
Growing Degree Days 15 (Base 50)    
Moisture  
Dew Point 63 °F    
Average Humidity 84    
Maximum Humidity 90    
Minimum Humidity 78    
Precipitation  
Precipitation 0.23 in - - ()
Month to date precipitation 0.63  
Year to date precipitation 18.40  
Sea Level Pressure  
Sea Level Pressure 29.86 in    
Wind  
Wind Speed 5 mph (SSW)    
Max Wind Speed 16 mph    
Max Gust Speed 21 mph    
Visibility 7 miles    
Events Rain    
Averages and records for this station are not official NWS values.
T = Trace of Precipitation, MM = Missing Value Source: NWS Daily Summary

Daily Weather History Graph

Daily Weather History Graph

Search for Another Location

Airport or City:

Astronomy

Jun. 05, 2019 Rise Set
Actual Time 5:54 AM EDT 8:44 PM EDT
Civil Twilight 5:23 AM EDT 9:16 PM EDT
Nautical Twilight 4:43 AM EDT 9:56 PM EDT
Astronomical Twilight 3:57 AM EDT 10:42 PM EDT
Moon 7:58 AM EDT (6/5) 11:09 PM EDT (6/5)
Length of Visible Light 15h 52m
Length of Day
14h 49m
Waxing Crescent, 6% of the Moon is Illuminated
Jun 5
Waxing Crescent
Jun 10
First Quarter
Jun 17
Full
Jun 25
Last Quarter
Jul 2
New

Hourly Weather History & Observations

Time (EDT) Temp. Dew Point Humidity Pressure Visibility Wind Dir Wind Speed Gust Speed Precip Events Conditions
12:53 AM 59.0 °F 54.0 °F 83% 29.95 in 10.0 mi Calm Calm - N/A   Clear
1:53 AM 60.1 °F 55.0 °F 83% 29.94 in 10.0 mi Calm Calm - N/A   Clear
2:53 AM 59.0 °F 55.0 °F 87% 29.93 in 10.0 mi Calm Calm - N/A   Clear
3:53 AM 60.1 °F 55.0 °F 83% 29.93 in 10.0 mi Calm Calm - N/A   Clear
4:53 AM 62.1 °F 55.0 °F 78% 29.92 in 10.0 mi Calm Calm - N/A   Mostly Cloudy
5:53 AM 62.1 °F 57.0 °F 84% 29.93 in 10.0 mi Calm Calm - 0.01 in Rain Light Rain
6:53 AM 64.9 °F 59.0 °F 81% 29.93 in 9.0 mi Calm Calm - 0.00 in   Overcast
7:53 AM 66.0 °F 60.1 °F 81% 29.92 in 3.0 mi South 5.8 mph - 0.03 in Rain Light Rain
7:57 AM 64.9 °F 60.1 °F 84% 29.97 in 1.8 mi Calm Calm - 0.03 in Rain Heavy Rain
8:07 AM 66.0 °F 61.0 °F 84% 29.96 in 3.0 mi SE 4.6 mph - 0.04 in Rain Light Rain
8:53 AM 66.9 °F 62.1 °F 84% 29.90 in 8.0 mi SSE 5.8 mph - 0.04 in   Overcast
9:53 AM 69.1 °F 63.0 °F 81% 29.91 in 8.0 mi SSW 6.9 mph - N/A   Overcast
10:53 AM 68.0 °F 63.0 °F 84% 29.87 in 7.0 mi SSW 12.7 mph - 0.05 in Rain Light Rain
11:53 AM 69.1 °F 64.0 °F 84% 29.90 in 7.0 mi SSW 8.1 mph - 0.00 in Rain Light Rain
12:51 PM 68.0 °F 64.4 °F 88% 29.92 in 3.0 mi South 10.4 mph - 0.04 in Rain Light Rain
12:53 PM 68.0 °F 63.0 °F 84% 29.89 in 3.0 mi SSW 10.4 mph - 0.04 in Rain Light Rain
1:53 PM 69.1 °F 64.0 °F 84% 29.87 in 5.0 mi SSW 9.2 mph 18.4 mph 0.02 in Rain Light Rain
2:01 PM 69.1 °F 64.0 °F 84% 29.90 in 5.0 mi SSW 11.5 mph - 0.00 in Rain Light Rain
2:50 PM 69.8 °F 64.4 °F 83% 29.88 in 8.0 mi SSW 8.1 mph - 0.01 in Rain Light Rain
2:53 PM 70.0 °F 64.9 °F 84% 29.85 in 7.0 mi South 9.2 mph - 0.01 in Rain Light Rain
3:12 PM 69.1 °F 64.9 °F 87% 29.88 in 6.0 mi SSW 9.2 mph - 0.00 in Rain Light Rain
3:50 PM 69.8 °F 64.4 °F 83% 29.86 in 2.5 mi SSW 6.9 mph - 0.02 in Rain Light Rain
3:53 PM 69.1 °F 64.9 °F 87% 29.83 in 2.0 mi SSW 8.1 mph - 0.03 in Rain Rain
4:03 PM 69.1 °F 64.9 °F 87% 29.86 in 2.5 mi South 8.1 mph - 0.00 in Rain Light Rain
4:13 PM 69.1 °F 64.9 °F 87% 29.85 in 4.0 mi South 6.9 mph - 0.00 in Rain Light Rain
4:24 PM 69.1 °F 64.9 °F 87% 29.85 in 9.0 mi South 6.9 mph - 0.00 in   Overcast
4:45 PM 69.1 °F 64.9 °F 87% 29.84 in 9.0 mi SSW 9.2 mph - 0.00 in   Overcast
4:53 PM 70.0 °F 64.9 °F 84% 29.80 in 9.0 mi SSW 8.1 mph - 0.00 in   Overcast
5:18 PM 70.0 °F 64.9 °F 84% 29.83 in 9.0 mi SSW 9.2 mph - N/A   Overcast
5:32 PM 70.0 °F 64.9 °F 84% 29.83 in 10.0 mi SW 9.2 mph - N/A   Overcast
5:53 PM 70.0 °F 64.9 °F 84% 29.79 in 10.0 mi SW 8.1 mph - N/A   Overcast
6:53 PM 71.1 °F 66.0 °F 84% 29.77 in 9.0 mi SW 9.2 mph - N/A   Overcast
7:41 PM 70.0 °F 64.9 °F 84% 29.81 in 8.0 mi SSW 6.9 mph - 0.00 in   Unknown
7:53 PM 70.0 °F 66.0 °F 87% 29.77 in 8.0 mi SSW 4.6 mph - 0.00 in   Unknown
8:11 PM 70.0 °F 66.0 °F 87% 29.82 in 8.0 mi SSW 4.6 mph - N/A   Overcast
8:53 PM 70.0 °F 64.9 °F 84% 29.78 in 9.0 mi South 3.5 mph - N/A   Overcast
9:03 PM 70.0 °F 64.9 °F 84% 29.81 in 10.0 mi South 5.8 mph - N/A   Overcast
9:31 PM 70.0 °F 64.9 °F 84% 29.80 in 9.0 mi South 5.8 mph - N/A   Mostly Cloudy
9:51 PM 69.8 °F 66.2 °F 88% 29.82 in 9.0 mi SSW 3.5 mph - 0.00 in   Mostly Cloudy
9:53 PM 70.0 °F 66.0 °F 87% 29.78 in 9.0 mi Calm Calm - 0.00 in   Mostly Cloudy
10:27 PM 69.1 °F 64.9 °F 87% 29.81 in 9.0 mi SSW 5.8 mph - N/A   Scattered Clouds
10:53 PM 69.1 °F 64.9 °F 87% 29.78 in 9.0 mi South 5.8 mph - N/A   Clear
11:53 PM 71.1 °F 66.0 °F 84% 29.78 in 10.0 mi South 3.5 mph - N/A   Partly Cloudy